カタログに戻る

STARLINK-30810

運用中通信VLEO
NORAD 58178·PAYLOAD·🇺🇸 United States

打ち上げ Oct 30, 2023 から Cape Canaveral Space Force Station

Loading…

次のパス (今後24時間)

TLE

最新Source: CelesTrak SupGP

元期: Sep 15, 2026, 02:37 UTC

1 58178C 23167D   26258.10951389  .00024315  00000+0  88080-3 0  2586
2 58178  42.9997 153.2642 0001448 276.9433 279.4746 15.27561993    13

AllMySatでSTARLINK-30810をリアルタイム追跡

Download on the App Store